SB KEPS @ AMSAT $ORB10217.O Orbital Elements 10217.OSCAR
HR AMSAT ORBITAL ELEMENTS FOR OSCAR SATELLITES FROM WA5QGD FORT WORTH,TX August 5, 2010 Send Subscribe/unsubscribe to KEPS at http://www.amsat.org/mailman/listinfo/keps BID: ORB10217.O TO ALL RADIO AMATEURS BT
Satellite: AO-07 Catalog number: 07530 Epoch time: 10216.56525575 Element set: 0846 Inclination: 101.4002 deg RA of node: 230.5540 deg Eccentricity: 0.0011670 Arg of perigee: 178.3849 deg Mean anomaly: 181.7261 deg Mean motion: 12.53579141 rev/day Decay rate: -2.7e-07 rev/day^2 Epoch rev: 63451 Checksum: 276
Satellite: FO-29 Catalog number: 24278 Epoch time: 10216.91259478 Element set: 0376 Inclination: 098.5150 deg RA of node: 039.3056 deg Eccentricity: 0.0351071 Arg of perigee: 357.6125 deg Mean anomaly: 002.3329 deg Mean motion: 13.52951218 rev/day Decay rate: -6.0e-07 rev/day^2 Epoch rev: 68969 Checksum: 317
Satellite: SO-33 Catalog number: 25509 Epoch time: 10216.41595598 Element set: 0767 Inclination: 031.4334 deg RA of node: 235.7808 deg Eccentricity: 0.0353431 Arg of perigee: 351.5213 deg Mean anomaly: 007.9564 deg Mean motion: 14.28319169 rev/day Decay rate: 1.33e-06 rev/day^2 Epoch rev: 61495 Checksum: 310
Satellite: RS-22 Catalog number: 27939 Epoch time: 10217.62626113 Element set: 425 Inclination: 097.8863 deg RA of node: 080.9992 deg Eccentricity: 0.0012439 Arg of perigee: 264.2348 deg Mean anomaly: 095.7437 deg Mean motion: 14.63439290 rev/day Decay rate: 1.35e-06 rev/day^2 Epoch rev: 36618 Checksum: 328
Satellite: VO-52 Catalog number: 28650 Epoch time: 10216.82123942 Element set: 0569 Inclination: 097.6890 deg RA of node: 268.3498 deg Eccentricity: 0.0028173 Arg of perigee: 116.3817 deg Mean anomaly: 244.0291 deg Mean motion: 14.81780459 rev/day Decay rate: -1.29e-06 rev/day^2 Epoch rev: 28389 Checksum: 338
Satellite: SO-67 Catalog number: 35870 Epoch time: 10217.73005558 Element set: 981 Inclination: 097.3279 deg RA of node: 265.5463 deg Eccentricity: 0.0001595 Arg of perigee: 308.3293 deg Mean anomaly: 188.1917 deg Mean motion: 15.20983042 rev/day Decay rate: 7.44e-06 rev/day^2 Epoch rev: 4898 Checksum: 337
Satellite: HO-68 Catalog number: 36122 Epoch time: 10217.65342175 Element set: 551 Inclination: 100.4654 deg RA of node: 277.5742 deg Eccentricity: 0.0007191 Arg of perigee: 222.8589 deg Mean anomaly: 137.1969 deg Mean motion: 13.16281501 rev/day Decay rate: -4.5e-07 rev/day^2 Epoch rev: 3072 Checksum: 288
/EX SB KEPS @ AMSAT $ORB10217.D Orbital Elements 10217.MICROS
HR AMSAT ORBITAL ELEMENTS FOR THE MICROSATS FROM WA5QGD FORT WORTH,TX August 5, 2010 Send Subscribe/unsubscribe to KEPS at http://www.amsat.org/mailman/listinfo/keps BID: ORB10217.D TO ALL RADIO AMATEURS BT
Satellite: UO-11 Catalog number: 14781 Epoch time: 10216.30089369 Element set: 0306 Inclination: 098.0525 deg RA of node: 268.1796 deg Eccentricity: 0.0010250 Arg of perigee: 084.3580 deg Mean anomaly: 275.8803 deg Mean motion: 14.79819829 rev/day Decay rate: -1.27e-06 rev/day^2 Epoch rev: 41892 Checksum: 320
Satellite: AO-16 Catalog number: 20439 Epoch time: 10217.73326424 Element set: 962 Inclination: 098.3360 deg RA of node: 173.6992 deg Eccentricity: 0.0011587 Arg of perigee: 024.1339 deg Mean anomaly: 336.0386 deg Mean motion: 14.31869072 rev/day Decay rate: 2.9e-07 rev/day^2 Epoch rev: 7247 Checksum: 306
Satellite: LO-19 Catalog number: 20442 Epoch time: 10217.44356410 Element set: 871 Inclination: 098.2976 deg RA of node: 179.0229 deg Eccentricity: 0.0012298 Arg of perigee: 019.5319 deg Mean anomaly: 340.6321 deg Mean motion: 14.32099479 rev/day Decay rate: 2.9e-07 rev/day^2 Epoch rev: 7260 Checksum: 301
Satellite: AO-27 Catalog number: 22825 Epoch time: 10217.71618768 Element set: 594 Inclination: 098.4879 deg RA of node: 164.3922 deg Eccentricity: 0.0009099 Arg of perigee: 119.6257 deg Mean anomaly: 240.5821 deg Mean motion: 14.29304075 rev/day Decay rate: 8.5e-07 rev/day^2 Epoch rev: 87912 Checksum: 339
Satellite: IO-26 Catalog number: 22826 Epoch time: 10217.77277736 Element set: 331 Inclination: 098.4819 deg RA of node: 165.0300 deg Eccentricity: 0.0009742 Arg of perigee: 115.1056 deg Mean anomaly: 245.1144 deg Mean motion: 14.29560499 rev/day Decay rate: 1.3e-07 rev/day^2 Epoch rev: 87924 Checksum: 302
Satellite: GO-32 Catalog number: 25397 Epoch time: 10217.73648260 Element set: 251 Inclination: 098.3140 deg RA of node: 222.4598 deg Eccentricity: 0.0002244 Arg of perigee: 109.5153 deg Mean anomaly: 250.6237 deg Mean motion: 14.23181688 rev/day Decay rate: -8.8e-07 rev/day^2 Epoch rev: 62709 Checksum: 298
Satellite: NO-44 Catalog number: 26931 Epoch time: 10216.68660248 Element set: 0526 Inclination: 067.0516 deg RA of node: 079.0203 deg Eccentricity: 0.0005130 Arg of perigee: 266.3408 deg Mean anomaly: 093.7106 deg Mean motion: 14.29605973 rev/day Decay rate: 4.3e-07 rev/day^2 Epoch rev: 46168 Checksum: 291
Satellite: SO-50 Catalog number: 27607 Epoch time: 10216.53118009 Element set: 236 Inclination: 064.5561 deg RA of node: 209.6751 deg Eccentricity: 0.0037120 Arg of perigee: 054.5151 deg Mean anomaly: 305.9418 deg Mean motion: 14.71559863 rev/day Decay rate: 8.4e-07 rev/day^2 Epoch rev: 40949 Checksum: 294
Satellite: CO-55 Catalog number: 27844 Epoch time: 10217.60508944 Element set: 905 Inclination: 098.7102 deg RA of node: 225.8712 deg Eccentricity: 0.0010747 Arg of perigee: 032.4754 deg Mean anomaly: 327.7080 deg Mean motion: 14.20721119 rev/day Decay rate: 4.0e-07 rev/day^2 Epoch rev: 36810 Checksum: 282
Satellite: CO-57 Catalog number: 27848 Epoch time: 10217.57147341 Element set: 854 Inclination: 098.7148 deg RA of node: 224.9406 deg Eccentricity: 0.0010648 Arg of perigee: 036.6670 deg Mean anomaly: 323.5238 deg Mean motion: 14.20512728 rev/day Decay rate: 2.2e-07 rev/day^2 Epoch rev: 36805 Checksum: 307
Satellite: AO-51 Catalog number: 28375 Epoch time: 10216.48706809 Element set: 740 Inclination: 098.0649 deg RA of node: 207.2392 deg Eccentricity: 0.0083952 Arg of perigee: 311.6525 deg Mean anomaly: 047.7502 deg Mean motion: 14.40692830 rev/day Decay rate: 1.0e-07 rev/day^2 Epoch rev: 32046 Checksum: 294
Satellite: GENESAT1 Catalog number: 29655 Epoch time: 10216.61700559 Element set: 226 Inclination: 040.0059 deg RA of node: 067.3006 deg Eccentricity: 0.0005079 Arg of perigee: 297.8744 deg Mean anomaly: 064.7087 deg Mean motion: 16.44862838 rev/day Decay rate: 1.0637092e-01 rev/day^2 Epoch rev: 20777 Checksum: 320
Satellite: CP3 Catalog number: 31129 Epoch time: 10216.58259394 Element set: 0644 Inclination: 097.9355 deg RA of node: 253.5554 deg Eccentricity: 0.0104617 Arg of perigee: 084.5710 deg Mean anomaly: 276.7354 deg Mean motion: 14.52285712 rev/day Decay rate: 2.14e-06 rev/day^2 Epoch rev: 17488 Checksum: 314
Satellite: CO-65 Catalog number: 32785 Epoch time: 10216.18010072 Element set: 0750 Inclination: 097.8920 deg RA of node: 280.4359 deg Eccentricity: 0.0015917 Arg of perigee: 125.5392 deg Mean anomaly: 234.7298 deg Mean motion: 14.81688015 rev/day Decay rate: -8.9e-07 rev/day^2 Epoch rev: 12259 Checksum: 318
Satellite: KKS-1 Catalog number: 33493 Epoch time: 10217.70932382 Element set: 729 Inclination: 098.0903 deg RA of node: 337.6372 deg Eccentricity: 0.0019626 Arg of perigee: 345.0086 deg Mean anomaly: 015.0548 deg Mean motion: 14.81052037 rev/day Decay rate: 4.51e-06 rev/day^2 Epoch rev: 8281 Checksum: 289
Satellite: SOHLA-1 Catalog number: 33496 Epoch time: 10216.70989730 Element set: 0171 Inclination: 098.0609 deg RA of node: 325.1643 deg Eccentricity: 0.0007598 Arg of perigee: 053.6939 deg Mean anomaly: 306.4965 deg Mean motion: 14.69506295 rev/day Decay rate: 7.1e-07 rev/day^2 Epoch rev: 08200 Checksum: 317
Satellite: TISAT-1 Catalog number: 36799 Epoch time: 10216.72771421 Element set: 0044 Inclination: 098.1430 deg RA of node: 276.2140 deg Eccentricity: 0.0014657 Arg of perigee: 215.5100 deg Mean anomaly: 144.5183 deg Mean motion: 14.80132133 rev/day Decay rate: 2.58e-06 rev/day^2 Epoch rev: 00349 Checksum: 261
Satellite: STUDSAT Catalog number: 36801 Epoch time: 10216.73697962 Element set: 0059 Inclination: 098.1461 deg RA of node: 276.2007 deg Eccentricity: 0.0013194 Arg of perigee: 202.8181 deg Mean anomaly: 157.2444 deg Mean motion: 14.79564456 rev/day Decay rate: 8.84e-06 rev/day^2 Epoch rev: 00349 Checksum: 307
/EX SB KEPS @ AMSAT $ORB10217.W Orbital Elements 10217.WEATHER
HR AMSAT ORBITAL ELEMENTS FOR WEATHER SATELLITES FROM WA5QGD FORT WORTH,TX August 5, 2010 Send Subscribe/unsubscribe to KEPS at http://www.amsat.org/mailman/listinfo/keps BID: ORB10217.W TO ALL RADIO AMATEURS BT
Satellite: NOAA-10 Catalog number: 16969 Epoch time: 10216.72972452 Element set: 0158 Inclination: 098.6543 deg RA of node: 245.2363 deg Eccentricity: 0.0013181 Arg of perigee: 070.6544 deg Mean anomaly: 289.6043 deg Mean motion: 14.27422570 rev/day Decay rate: -3.3e-07 rev/day^2 Epoch rev: 24250 Checksum: 291
Satellite: NOAA-11 Catalog number: 19531 Epoch time: 10216.82113331 Element set: 0170 Inclination: 098.7688 deg RA of node: 305.0184 deg Eccentricity: 0.0011933 Arg of perigee: 013.5208 deg Mean anomaly: 346.6291 deg Mean motion: 14.14930572 rev/day Decay rate: -2.23e-06 rev/day^2 Epoch rev: 12801 Checksum: 261
Satellite: NOAA-12 Catalog number: 21263 Epoch time: 10216.70750616 Element set: 0659 Inclination: 098.7653 deg RA of node: 229.8615 deg Eccentricity: 0.0012948 Arg of perigee: 029.7367 deg Mean anomaly: 330.4548 deg Mean motion: 14.25646952 rev/day Decay rate: 9.5e-07 rev/day^2 Epoch rev: 99931 Checksum: 335
Satellite: MET-3/5 Catalog number: 21655 Epoch time: 10217.78784836 Element set: 880 Inclination: 082.5566 deg RA of node: 273.5933 deg Eccentricity: 0.0012503 Arg of perigee: 220.6249 deg Mean anomaly: 139.3903 deg Mean motion: 13.17025058 rev/day Decay rate: 5.1e-07 rev/day^2 Epoch rev: 91220 Checksum: 296
